Wind_Speed
13 13 14 14 15 16 17 18 18 19 20 21 22 22 22 22 21 22 23 23 23 24 25 25 26 27 28 29 31 32 32 32 32 33 34 37 39 39 40 41 40 40
15 16 17 18 18 18 18 19 20 20 20 20 21 22 22 22 22 23 23 24 24 24 24 25 26 26 28 28 29 30 31 31 32 34 37 39 39 39 40 41 40 41
17 18 19 20 20 20 19 19 20 20 20 20 20 20 20 21 22 23 23 24 24 24 24 24 25 26 27 28 29 30 31 32 33 34 37 38 39 41 42 43 44 45
17 18 19 20 20 20 20 20 19 19 19 19 18 18 19 20 20 21 23 24 24 24 24 24 25 26 27 28 29 30 31 32 33 34 36 37 38 40 41 42 44 45
17 18 18 18 19 20 20 20 19 18 18 18 17 17 18 19 19 20 21 22 22 23 23 23 24 25 26 27 29 30 31 32 33 34 36 36 36 38 38 39 41 42
18 18 18 18 18 18 19 20 19 19 19 19 18 17 18 18 19 19 20 21 21 22 22 23 24 25 26 27 29 31 32 32 33 34 35 35 35 35 35 36 38 39
18 17 17 17 18 18 18 19 19 19 19 20 20 19 19 19 19 19 20 21 22 22 23 23 25 26 27 28 30 31 32 33 34 34 35 35 34 34 33 33 35 36
15 15 16 16 16 17 17 18 18 18 18 19 19 19 20 20 20 20 21 22 23 23 24 25 26 27 28 29 31 32 34 34 34 35 35 35 35 34 33 33 34 35
14 15 15 15 16 16 16 17 18 18 18 19 19 19 20 20 21 21 22 24 25 26 27 27 28 29 29 31 32 33 35 35 35 35 36 36 36 36 35 34 34 35
14 14 14 14 15 16 17 17 18 19 20 20 20 20 20 21 21 22 23 25 26 27 28 29 30 31 31 33 34 35 36 36 36 36 37 37 37 36 36 35 36 36
11 12 12 13 14 15 16 18 19 20 21 22 23 23 23 23 23 24 24 25 26 27 28 29 30 31 32 33 34 35 36 37 38 38 38 38 38 37 36 36 36 36
10 11 11 12 14 15 17 19 20 21 22 23 24 24 25 25 26 26 27 27 28 28 29 29 30 31 31 32 32 33 35 37 38 39 39 39 38 37 36 36 36 37
11 12 14 15 16 18 19 20 22 23 24 24 25 25 26 26 27 28 28 29 30 30 30 31 31 31 31 31 31 31 32 34 36 38 39 39 38 37 37 36 36 37
13 15 16 18 19 20 21 22 23 23 24 25 25 26 26 27 27 27 27 28 29 31 31 32 33 33 32 31 31 31 31 32 33 35 37 37 38 37 37 37 37 37
15 17 18 19 20 20 21 22 22 23 23 24 25 26 26 26 26 26 27 27 28 29 30 31 32 33 32 31 31 31 31 32 33 34 36 37 37 38 38 38 38 38
16 17 17 18 19 19 20 21 22 23 24 24 25 25 26 26 26 27 27 28 28 28 29 30 31 31 32 31 31 31 31 32 33 34 35 36 37 38 39 39 39 38
17 17 18 19 19 20 22 23 24 25 26 27 27 27 28 27 27 28 28 28 29 30 30 31 31 31 32 32 32 32 32 33 33 34 35 36 37 38 39 40 39 39
18 19 20 21 22 23 25 26 27 28 29 30 30 30 31 31 31 30 29 29 30 31 31 31 31 31 32 32 33 33 33 34 35 35 35 36 37 37 38 39 40 40
20 20 22 23 25 27 28 30 31 32 33 33 34 33 34 34 34 34 33 33 32 32 33 32 32 32 32 33 33 33 33 34 35 37 37 38 38 38 38 39 39 40
21 23 24 26 27 29 31 33 34 34 34 35 35 35 35 35 36 36 36 36 36 36 36 35 34 33 34 34 34 34 34 34 36 37 38 39 39 39 39 39 39 39
24 25 27 29 30 33 35 36 36 36 36 36 37 37 37 37 37 37 37 37 38 39 39 39 37 36 35 35 35 35 35 35 36 37 38 39 39 39 39 39 39 38
28 29 31 33 35 37 38 39 39 39 39 39 40 40 40 40 39 40 40 39 40 40 41 42 41 38 37 37 36 35 35 36 36 36 37 38 38 38 39 39 38 37
31 33 35 36 38 39 40 40 40 40 40 41 42 42 42 42 42 42 42 42 42 42 42 43 43 41 40 39 37 36 35 36 36 36 37 38 38 38 38 38 38 36
33 34 36 37 38 38 38 39 39 40 40 41 42 44 44 44 45 45 44 44 44 44 44 45 45 43 42 41 40 38 35 35 35 36 37 38 38 38 38 37 37 35
31 33 34 35 36 36 37 38 38 39 40 40 41 43 44 45 45 46 46 46 45 45 45 46 46 45 43 42 42 40 38 36 35 36 38 38 38 38 38 37 36 35
29 30 32 32 34 35 36 37 38 39 40 41 41 42 43 44 45 45 47 47 46 46 46 46 46 45 44 42 42 41 39 37 36 36 37 37 37 37 37 37 36 34
Wind_Direction
354 345 337 326 315 303 296 294 295 295 295 292 289 287 284 280 276 271 266 263 260 258 257 256 255 254 253 253 252 253 256 257 258 261 265 268 269 271 273 274 275 276
350 346 342 337 332 322 309 299 294 293 295 295 292 288 286 282 277 272 269 266 262 259 258 257 257 257 256 257 256 256 258 258 257 255 256 260 264 266 268 269 270 271
345 342 339 335 333 330 323 312 300 295 295 297 295 290 286 283 277 274 271 267 265 262 260 259 258 258 258 258 259 259 260 260 260 259 258 260 261 262 264 266 267 268
338 335 333 329 327 325 324 320 311 301 297 296 295 290 284 280 277 276 274 273 272 270 269 267 264 263 262 261 261 261 262 263 264 263 263 264 265 265 266 267 268 269
332 330 327 322 319 317 320 321 316 306 300 296 293 289 284 280 277 276 276 277 278 278 277 276 276 275 274 272 270 268 267 266 267 266 266 268 268 268 270 271 271 272
327 325 322 318 315 315 319 322 320 313 306 299 293 289 285 283 281 280 279 279 278 278 279 280 282 282 282 282 281 278 276 273 271 270 269 271 272 273 274 274 275 275
322 321 321 319 319 320 322 323 323 321 316 308 303 296 289 285 283 282 280 279 278 279 282 283 284 284 284 285 285 284 283 280 278 276 274 275 276 277 279 279 280 282
321 323 325 325 325 326 327 328 328 328 325 321 317 311 305 298 293 288 283 281 280 281 282 283 284 285 285 285 285 285 284 283 282 281 281 281 281 282 283 283 283 285
328 331 334 336 338 340 341 341 341 339 336 333 330 325 320 315 309 302 296 292 290 289 289 288 287 287 286 285 285 285 284 284 284 283 284 284 284 285 286 285 284 285
334 338 343 346 349 352 353 352 351 349 347 344 340 337 332 326 320 314 309 305 302 300 298 296 294 292 290 289 288 287 287 286 285 285 285 285 285 285 285 284 284 285
339 343 347 350 353 354 353 352 350 348 347 345 342 341 338 334 328 323 317 313 310 307 304 302 299 296 293 292 291 289 288 286 285 284 283 283 283 283 283 283 284 286
343 345 347 348 349 348 346 345 344 342 341 340 338 337 336 334 331 328 324 320 316 312 308 305 302 299 297 295 294 292 289 286 284 282 281 281 281 282 282 283 284 285
343 343 344 343 343 342 341 339 337 334 333 332 331 330 330 330 328 327 326 323 320 317 314 310 306 303 302 300 298 296 292 288 285 282 282 282 282 283 283 283 283 284
342 340 339 339 337 336 334 332 331 329 327 326 325 324 324 323 323 323 322 320 319 318 317 314 312 310 308 306 302 299 295 291 287 284 282 281 281 282 282 282 282 284
341 338 336 335 334 334 332 331 330 329 327 325 323 321 320 319 319 318 318 316 316 315 315 315 314 314 312 310 305 301 296 291 288 285 282 281 281 281 281 282 283 284
341 339 338 337 337 338 338 338 337 335 333 331 328 325 322 320 319 317 316 315 314 314 313 314 314 314 313 311 307 303 298 293 290 287 284 282 281 281 282 283 283 284
341 341 340 339 340 341 340 340 339 338 336 334 332 331 329 326 324 320 318 316 314 314 314 314 315 316 315 312 309 306 303 298 294 291 287 284 283 282 282 283 283 284
340 340 340 340 339 340 339 338 337 336 334 332 331 331 330 329 328 326 324 321 318 316 315 314 316 317 316 313 310 308 304 301 298 294 291 288 286 284 283 283 283 283
337 337 338 338 337 337 336 335 334 333 332 331 329 329 328 327 327 327 327 326 324 321 318 317 318 319 317 314 311 308 304 300 298 296 293 291 289 286 285 284 284 284
331 332 333 333 334 333 332 331 330 329 329 327 326 326 325 324 323 323 323 324 324 322 320 320 320 320 318 316 314 310 305 301 298 295 293 292 290 288 286 285 285 285
325 327 327 328 328 328 327 326 325 324 324 323 322 322 322 321 321 320 319 319 320 320 318 318 319 320 318 317 315 312 307 302 298 295 294 292 290 288 286 286 285 284
321 322 322 323 324 323 322 321 320 320 320 319 318 318 318 318 318 317 317 317 317 317 316 314 315 318 317 315 314 312 308 303 299 296 293 292 290 288 287 285 284 283
318 318 319 319 318 318 317 316 316 315 315 314 313 312 312 313 313 313 313 314 314 315 314 313 313 315 317 315 314 312 308 304 300 296 293 291 290 288 287 285 284 283
315 315 315 314 314 314 313 312 312 312 311 311 310 309 309 309 309 308 308 309 310 311 311 311 311 313 315 315 315 313 309 305 301 297 294 292 290 289 287 286 285 283
313 313 313 313 312 312 312 312 311 311 311 310 310 309 307 307 307 306 305 305 306 307 308 308 309 310 312 313 314 314 311 308 304 299 297 295 293 290 289 287 286 285
314 314 314 313 312 311 311 311 312 312 311 311 310 309 308 307 307 306 305 304 304 305 305 306 308 309 310 311 311 311 311 309 305 301 299 297 294 291 288 286 285 285
Height
1542 1542 1542 1541 1541 1540 1540 1539 1539 1538 1538 1537 1537 1537 1537 1537 1537 1537 1536 1537 1536 1536 1536 1536 1536 1537 1537 1537 1537 1537 1536 1536 1536 1537 1537 1536 1535 1535 1534 1533 1534 1533
1541 1541 1541 1540 1539 1539 1538 1537 1536 1536 1535 1535 1534 1534 1534 1534 1534 1534 1533 1533 1533 1533 1533 1533 1533 1533 1533 1533 1533 1533 1532 1532 1532 1532 1532 1531 1531 1530 1530 1529 1529 1529
1540 1540 1539 1538 1538 1537 1536 1535 1534 1533 1533 1532 1532 1532 1531 1531 1531 1531 1531 1530 1530 1530 1530 1529 1529 1529 1529 1529 1529 1529 1528 1528 1528 1528 1527 1527 1526 1526 1525 1525 1525 1524
1539 1538 1537 1537 1536 1535 1534 1533 1532 1531 1530 1530 1529 1529 1528 1528 1528 1528 1528 1527 1527 1527 1527 1527 1527 1527 1526 1526 1525 1524 1524 1524 1524 1524 1523 1522 1522 1521 1521 1520 1520 1519
1537 1536 1535 1535 1534 1533 1532 1531 1530 1528 1527 1527 1526 1525 1525 1524 1524 1524 1524 1524 1524 1524 1524 1524 1524 1524 1523 1523 1522 1521 1521 1520 1520 1520 1518 1517 1517 1517 1516 1516 1515 1514
1535 1534 1533 1533 1532 1531 1530 1529 1527 1526 1525 1524 1523 1523 1522 1521 1521 1521 1521 1521 1521 1521 1521 1521 1520 1520 1520 1520 1519 1518 1518 1517 1516 1516 1514 1513 1513 1512 1512 1512 1510 1509
1533 1532 1531 1530 1530 1529 1528 1527 1526 1525 1524 1523 1522 1521 1520 1519 1519 1519 1518 1518 1518 1518 1517 1517 1517 1516 1516 1515 1515 1515 1514 1514 1513 1512 1510 1509 1508 1508 1508 1507 1505 1504
1531 1530 1529 1528 1528 1526 1526 1525 1524 1523 1522 1521 1520 1520 1519 1518 1517 1516 1515 1515 1515 1514 1514 1514 1513 1513 1512 1512 1511 1511 1510 1509 1508 1507 1506 1505 1504 1503 1503 1502 1500 1499
1529 1528 1527 1526 1525 1524 1523 1522 1521 1521 1520 1519 1518 1518 1517 1516 1515 1514 1513 1512 1512 1511 1511 1510 1510 1509 1508 1508 1507 1507 1506 1505 1504 1503 1501 1500 1499 1498 1498 1497 1496 1494
1527 1527 1526 1525 1524 1523 1522 1521 1520 1519 1518 1517 1516 1515 1515 1514 1512 1512 1511 1510 1509 1509 1508 1507 1506 1506 1505 1504 1504 1503 1502 1501 1500 1498 1497 1495 1494 1494 1493 1492 1491 1489
1526 1525 1524 1523 1523 1522 1521 1520 1519 1518 1517 1515 1514 1514 1513 1511 1510 1509 1508 1507 1506 1506 1505 1504 1503 1502 1501 1500 1500 1499 1497 1496 1494 1493 1492 1490 1489 1489 1488 1487 1486 1485
1525 1524 1523 1522 1521 1520 1520 1519 1517 1516 1515 1514 1513 1511 1510 1509 1508 1507 1506 1504 1503 1502 1501 1500 1499 1498 1497 1496 1496 1494 1493 1491 1489 1488 1486 1485 1484 1483 1483 1482 1481 1480
1523 1522 1521 1521 1520 1519 1518 1517 1516 1515 1513 1512 1511 1509 1508 1507 1506 1505 1503 1502 1500 1499 1498 1497 1495 1494 1493 1493 1491 1490 1488 1486 1485 1483 1481 1480 1479 1478 1478 1477 1476 1475
1522 1521 1520 1519 1518 1518 1517 1515 1514 1513 1511 1510 1508 1507 1505 1504 1503 1502 1501 1499 1498 1496 1495 1493 1492 1491 1490 1489 1487 1486 1484 1482 1480 1478 1477 1475 1474 1473 1472 1472 1470 1469
1520 1519 1518 1518 1517 1516 1515 1513 1512 1511 1509 1508 1506 1505 1503 1502 1501 1499 1498 1496 1495 1494 1492 1490 1489 1488 1486 1485 1483 1481 1479 1477 1476 1474 1472 1470 1469 1468 1467 1466 1465 1464
1518 1518 1517 1516 1515 1514 1512 1511 1510 1508 1507 1506 1504 1503 1501 1500 1498 1497 1495 1493 1492 1490 1489 1488 1486 1485 1483 1481 1479 1477 1475 1473 1471 1469 1468 1466 1464 1463 1461 1460 1459 1459
1516 1515 1514 1513 1512 1511 1509 1508 1507 1505 1504 1502 1501 1500 1498 1497 1495 1494 1492 1490 1488 1486 1485 1484 1482 1481 1479 1477 1476 1474 1471 1469 1466 1465 1463 1461 1459 1458 1456 1455 1454 1453
1513 1512 1511 1510 1509 1508 1506 1505 1504 1502 1500 1499 1497 1496 1494 1493 1492 1490 1488 1487 1484 1482 1481 1479 1478 1477 1475 1473 1471 1469 1467 1464 1462 1460 1458 1456 1454 1453 1451 1450 1449 1447
1511 1510 1509 1507 1506 1505 1503 1502 1500 1499 1497 1495 1493 1492 1490 1488 1487 1485 1484 1482 1480 1478 1476 1474 1473 1472 1470 1468 1466 1464 1462 1459 1457 1455 1453 1451 1449 1448 1446 1445 1443 1442
1508 1507 1506 1505 1503 1502 1500 1499 1497 1496 1494 1492 1490 1488 1487 1485 1483 1481 1480 1478 1476 1474 1472 1470 1469 1467 1465 1463 1461 1459 1457 1455 1452 1450 1448 1446 1444 1443 1441 1440 1438 1437
1506 1504 1503 1502 1501 1499 1498 1496 1495 1493 1491 1489 1487 1485 1483 1481 1479 1477 1476 1474 1472 1470 1468 1466 1465 1464 1461 1459 1457 1455 1452 1450 1447 1445 1443 1441 1439 1438 1437 1435 1434 1433
1503 1501 1500 1499 1497 1496 1494 1492 1491 1489 1487 1485 1483 1481 1479 1478 1476 1474 1472 1470 1468 1466 1464 1462 1461 1460 1458 1455 1453 1451 1448 1445 1443 1440 1438 1436 1434 1433 1432 1430 1429 1428
1500 1499 1497 1496 1494 1492 1491 1489 1487 1486 1484 1482 1480 1478 1476 1474 1472 1470 1468 1466 1464 1463 1460 1457 1456 1455 1453 1451 1449 1447 1444 1441 1438 1436 1433 1431 1429 1428 1427 1425 1424 1424
1498 1496 1495 1493 1492 1490 1488 1486 1485 1483 1481 1479 1477 1475 1472 1471 1469 1467 1465 1463 1461 1459 1456 1453 1452 1450 1448 1446 1444 1442 1439 1437 1434 1431 1429 1427 1425 1424 1422 1421 1420 1419
1496 1494 1492 1490 1489 1487 1485 1483 1482 1480 1478 1476 1474 1472 1469 1467 1465 1463 1461 1459 1457 1455 1453 1450 1447 1446 1444 1442 1439 1437 1434 1432 1430 1427 1424 1422 1421 1419 1417 1416 1415 1415
1494 1492 1490 1488 1486 1484 1482 1480 1478 1476 1474 1472 1470 1468 1465 1463 1461 1458 1456 1454 1452 1451 1448 1446 1444 1441 1440 1437 1435 1432 1430 1427 1425 1422 1419 1418 1416 1414 1412 1411 1410 1410